Location: Cassagne
(43.1218°N, 0.9901°E)
Time: 02:56:36
(UTC+00:00)

Cosmos 1339 Rocket - Pass Details

Date: 17 February 2020
Orbit: 943 x 1005 km, 82.9° (Epoch: 03 April)

Event Time Altitude Azimuth Distance (km) Brightness Sun altitude
Exits shadow 04:39:07 - 190° (S) 3,518 7.3 -24.8°
Reaches altitude 10° 04:41:24 10° 191° (SSW) 2,652 6.6 -24.4°
Maximum altitude 04:47:27 78° 278° (W) 968 4.3 -23.3°
Drops below altitude 10° 04:53:35 10° 5° (N) 2,682 6.9 -22.2°
Sets 04:56:06 0° 7° (N) 3,638 7.6 -21.7°
